Location: Kawakawa
(35.3830°S, 174.0670°E)
Time: 04:25:52
(UTC+13:00)

Envisat - Pass Details

Date: 30 November 2019
Orbit: 764 x 766 km, 98.1° (Epoch: 08 December)

Event Time Altitude Azimuth Distance (km) Brightness Sun altitude
Rises 21:22:45 0° 186° (S) 3,269 7.0 -11.3°
Reaches altitude 10° 21:25:43 10° 204° (SSW) 2,334 6.5 -11.7°
Maximum altitude 21:29:09 18° 246° (WSW) 1,808 6.1 -12.3°
Drops below altitude 10° 21:32:35 10° 288° (WNW) 2,314 5.9 -12.8°
Sets 21:35:32 0° 306° (NW) 3,231 6.4 -13.3°
